OBJECT AE, 69008

Orbit data source: Space-Track

You're viewing an Uncataloged Satellite

Recently launched and/or uncataloged satellites may have evolving metadata. Metadata may include but not limited to: Owner, Maufacturer, Bus, Motor, and Mission.

OBJECT AE, 69008 is a satellite in SSO that was launched on Sun, 03 May 2026 UTC launched from the Air Force Western Test Range (AFWTR). Unknown objects in Earth's orbit typically refer to objects detected orbiting the Earth but have not yet been identified or cataloged. These objects could be anything from previously untracked satellites, spent rocket stages, debris from satellite collisions, or even natural meteoroids temporarily captured by Earth's gravity.

Loading next visibility...
Identifier
69008, 2026-100AE
Orbit
SSO
Country
Flag of TBDTBD
Related business
None
Manufacturer
Unknown
Mission
Operational spacecraft
Bus & Motor
Unknown
Mass
Unknown
Launch date (UTC)
2026-05-03 (1 week ago)
Launch vehicle
Unknown
Launch site
Air Force Western Test Range (AFWTR)
Object type
Unknown
Shape & HBR
Unknown
Radar Cross Section
RCS unknown

Expand to show TLE details & history
Last TLE update: 8 hours ago

TLE from 8 hours ago
0 OBJECT AE
1 69008U 26100AE  26130.17682146  .00001039  00000-0  11010-3 0  9998
2 69008  97.7384  28.3329 0002143 287.1432  72.9552 14.91196974  1021
Epoch: 2026-05-10T04:14Z
TLE epoch observation values (Epoch: 2026-05-10T04:14:37.374Z)
Latitude
0.00002°
Longitude
96.69352°
Altitude
596.806 km
Speed
7.562 km/s
True Right ascension
01h 53m 19s
True Declination
0° 00' 00"
Sunlit
Object was in daylight at epoch
Visualization orbit readout
Latitude
Unknown
Longitude
Unknown
Altitude
Unknown
Speed
Unknown
Apparent Right ascension
Unknown
Apparent Declination
Unknown
Sunlit
N/A
Visualization observer readout
Local Sidereal Time
20:32:18
Azimuth
Unknown
Elevation
Unknown
Doppler factor
Unknown
Orbital elements
Apogee altitude
592.714 km
Perigee altitude
589.727 km
Semi-major axis
6,969.358 km
Eccentricity
0.00021
Inclination
97.7384°
RAAN
28.3329°
Arg. of periapsis
287.1432°
True anomaly
72.97868°
Mean anomaly
72.9552°
Eccentric anomaly
72.96694°
Mean motion
3.73039 °/min
Orbital period
96.5 mins
BSTAR
0.0001101
Loading maneuver chart data...
Computing Atmospheric mass density...
Loading historical data...
Loading historical data...
Loading historical data...
Loading historical data...
Loading historical data...
Loading historical data...
Loading historical data...

Documentation

Showing up to 5 results
|